Regional Weather Roundup
Issued by NWS Little Rock, AR

Home | Current Version | Previous Version | Graphics & Text | Print | Product List | Glossary On
Versions: 1 2 3 4 5 6 7 8 9 10 11 12 13 14 15 16 17 18 19 20 21 22 23 24 25 26 27 28
000
ASUS44 KLZK 262205
RWRLZK

WEATHER ROUNDUP FOR ARKANSAS
NATIONAL WEATHER SERVICE LITTLE ROCK AR
500 PM CDT TUE JUL 26 2016

NOTE: "FAIR" INDICATES FEW OR NO CLOUDS BELOW 12,000 FEET WITH NO
SIGNIFICANT WEATHER AND/OR OBSTRUCTIONS TO VISIBILITY.

ARZ001-003-010-029-262300-
NORTHWEST ARKANSAS

CITY           SKY/WX    TMP DP  RH WIND       PRES   REMARKS
FAYETTEVILLE   TSTM      73  73 100 CALM      29.99R FOG
FORT SMITH     CLOUDY    93  70  46 W15       29.89F HX  99
HARRISON       LGT RAIN  78  74  87 W3        29.98F
BENTONVILLE    CLOUDY    77  70  78 E3        30.01R
ROGERS         CLOUDY    78  72  81 N8        30.03R
SILOAM SPGS    CLOUDY    81  66  61 CALM      30.01R
HIGHFILL       CLOUDY    80  74  81 CALM      30.00R HX  85
SPRINGDALE     PTSUNNY   79  72  78 SE12      30.00S
$$

ARZ004-005-016-262300-
NORTH CENTRAL ARKANSAS

CITY           SKY/WX    TMP DP  RH WIND       PRES   REMARKS
BATESVILLE     MOSUNNY   95  73  49 NE7       29.91F HX 105
FLIPPIN        PTSUNNY   79  73  83 CALM      29.92F
MTN HOME       CLOUDY    78  76  93 VRB3      29.95F
$$

ARZ040-041-262300-
WEST CENTRAL ARKANSAS

CITY           SKY/WX    TMP DP  RH WIND       PRES   REMARKS
MENA           MOSUNNY   91  75  59 W8        29.93F HX 102
MOUNT IDA      MOSUNNY   95  69  42 SE7       29.88F HX 100
$$

ARZ009-017-025-026-028-262300-
NORTHEAST ARKANSAS

CITY           SKY/WX    TMP DP  RH WIND       PRES   REMARKS
CORNING          N/A     86  77  74 N9G18     29.95S HX  97
JONESBORO      SUNNY     94  71  47 SE8       29.91F HX 101
NEWPORT        SUNNY     97  70  41 SE6       29.92F HX 103
WALNUT RIDGE   CLOUDY    93  70  46 E6        29.91S HX  99
BLYTHEVILLE    SUNNY     95  74  50 CALM      29.93S HX 105
$$

ARZ022-023-033-042-044-262300-
CENTRAL ARKANSAS

CITY           SKY/WX    TMP DP  RH WIND       PRES   REMARKS
LITTLE ROCK    MOSUNNY   96  68  39 SE8       29.90S HX 101
N LITTLE ROCK    N/A     92  71  49 S7        29.88S HX  99
JACKSONVILLE   SUNNY     95  72  46 VRB6      29.90S HX 103
SEARCY         SUNNY     97  72  44 SE12      29.91F HX 105
HOT SPRINGS    MOSUNNY   93  71  48 S5        29.91S HX 100
RUSSELLVILLE   MOSUNNY   87  73  62 W5        29.89F HX  94
$$

ARZ036-262300-
EAST ARKANSAS

CITY           SKY/WX    TMP DP  RH WIND       PRES   REMARKS
WEST MEMPHIS   SUNNY     92  73  53 CALM      29.91S HX 100
$$

ARZ050-053-066-070-073-262300-
SOUTHWEST ARKANSAS

CITY           SKY/WX    TMP DP  RH WIND       PRES   REMARKS
CAMDEN         MOSUNNY   91  70  49 CALM      29.87S HX  97
TEXARKANA      MOSUNNY   92  70  48 SE6       29.88S HX  97
EL DORADO      MOSUNNY   94  68  42 E6        29.89S HX  98
DE QUEEN       SUNNY     95  71  45 S9        29.86S HX 102
$$

ARZ056-057-069-262300-
SOUTHEAST ARKANSAS

CITY           SKY/WX    TMP DP  RH WIND       PRES   REMARKS
PINE BLUFF     SUNNY     94  69  44 SE9       29.90S HX  99
STUTTGART      SUNNY     93  70  46 E8        29.91S HX  99
MONTICELLO     MOSUNNY   95  71  45 E7        29.90S HX 102

$$






USA.gov is the U.S. government's official web portal to all federal, state and local government web resources and services.